Location: G�ndlingen
(48.0142°N, 7.6396°E)
Time: 17:56:42
(UTC+00:00)

BREEZE-M DEB (TANK) - Pass Details

Date: 05 July 2020
Orbit: 328 x 12049 km, 49.6° (Epoch: 13 August)

Event Time Altitude Azimuth Distance (km) Brightness Sun altitude
Rises 22:33:08 0° 285° (WNW) 3,759 6.8 -18.0°
Reaches altitude 10° 22:36:39 10° 285° (WNW) 2,024 5.4 -18.1°
Maximum altitude 22:40:24 83° 197° (SSW) 395 1.2 -18.3°
Enters shadow 22:40:32 77° 141° (SE) 396 1.2 -18.3°
